Weather History for Hot Springs, VA

Change the Weather History Date:

Wednesday, May 8, 2013

  Actual Average Record
Temperature  
Mean Temperature 48 °F -  
Max Temperature 51 °F 62 °F 77 °F (2000)
Min Temperature 44 °F 46 °F 41 °F (2006)
Degree Days  
Heating Degree Days 18    
Moisture  
Dew Point 46 °F    
Average Humidity 97    
Maximum Humidity 100    
Minimum Humidity 82    
Precipitation  
Precipitation 0.21 in - - ()
Sea Level Pressure  
Sea Level Pressure 30.01 in    
Wind  
Wind Speed 6 mph (SE)    
Max Wind Speed 12 mph    
Max Gust Speed -    
Visibility 4 miles    
Events Fog , Rain    
Averages and records for this station are not official NWS values.
T = Trace of Precipitation, MM = Missing Value Source: NWS Daily Summary

Daily Weather History Graph

Daily Weather History Graph

Search for Another Location

Airport:

Trip Planner

Search our weather history database for the weather conditions in past years. The results will help you decide how hot, cold, wet, or windy it might be!

Date:

Astronomy

May. 08, 2013 Rise Set
Actual Time 6:15 AM EDT 8:16 PM EDT
Civil Twilight 5:46 AM EDT 8:45 PM EDT
Nautical Twilight 5:11 AM EDT 9:21 PM EDT
Astronomical Twilight 4:33 AM EDT 9:59 PM EDT
Moon 5:21 AM EDT (5/8) 7:14 PM EDT (5/8)
Length of Visible Light 14h 59m
Length of Day
14h 01m
Waning Crescent, 2% of the Moon is Illuminated
May 8
Waning Crescent
May 9
New
May 18
First Quarter
May 25
Full
May 31
Last Quarter

Hourly Weather History & Observations

Time (EDT) Temp. Windchill Dew Point Humidity Pressure Visibility Wind Dir Wind Speed Gust Speed Precip Events Conditions
12:36 AM 44.6 °F 41.4 °F 44.6 °F 100% 29.97 in 0.2 mi East 5.8 mph - N/A Fog Fog
12:56 AM 44.6 °F 41.4 °F 44.6 °F 100% 29.97 in 0.2 mi SE 5.8 mph - N/A Fog Fog
1:16 AM 44.6 °F 40.7 °F 44.6 °F 100% 29.97 in 0.2 mi ESE 6.9 mph - N/A Fog Fog
1:36 AM 44.6 °F 42.2 °F 44.6 °F 100% 29.97 in 0.2 mi ESE 4.6 mph - N/A Fog Fog
1:56 AM 44.6 °F 42.2 °F 44.6 °F 100% 29.97 in 1.0 mi ESE 4.6 mph - N/A   Overcast
2:16 AM 44.6 °F 40.7 °F 44.6 °F 100% 29.97 in 0.5 mi East 6.9 mph - N/A Fog Fog
2:36 AM 44.6 °F 40.7 °F 44.6 °F 100% 29.97 in 0.2 mi East 6.9 mph - N/A Fog Fog
2:56 AM 44.6 °F 42.2 °F 44.6 °F 100% 29.96 in 0.2 mi ESE 4.6 mph - N/A Fog Fog
3:15 AM 44.6 °F 43.1 °F 44.6 °F 100% 29.96 in 0.2 mi ESE 3.5 mph - N/A Fog Fog
3:16 AM 44.6 °F 42.2 °F 44.6 °F 100% 29.96 in 0.2 mi ESE 4.6 mph - N/A Fog Fog
3:35 AM 44.6 °F 41.4 °F 44.6 °F 100% 29.97 in 0.2 mi ESE 5.8 mph - N/A Rain Light Rain
3:55 AM 44.6 °F 41.4 °F 44.6 °F 100% 29.97 in 0.2 mi ESE 5.8 mph - N/A Rain Light Rain
4:36 AM 44.6 °F 40.2 °F 44.6 °F 100% 29.96 in 0.2 mi ESE 8.1 mph - N/A Rain Light Rain
4:56 AM 44.6 °F 42.2 °F 44.6 °F 100% 29.96 in 0.2 mi ESE 4.6 mph - N/A   Unknown
5:15 AM 44.6 °F 41.4 °F 44.6 °F 100% 29.96 in 0.2 mi SE 5.8 mph - N/A Rain Light Rain
5:16 AM 44.6 °F 41.4 °F 44.6 °F 100% 29.96 in 0.2 mi SE 5.8 mph - N/A Rain Light Rain
5:35 AM 44.6 °F 40.7 °F 44.6 °F 100% 29.97 in 0.2 mi ESE 6.9 mph - 0.01 in Rain Light Rain
5:55 AM 44.6 °F 40.7 °F 44.6 °F 100% 29.96 in 0.2 mi ESE 6.9 mph - N/A Rain Light Rain
6:15 AM 44.6 °F 40.7 °F 44.6 °F 100% 29.97 in 0.2 mi SE 6.9 mph - 0.01 in Rain Light Rain
6:35 AM 44.6 °F 40.7 °F 44.6 °F 100% 29.97 in 0.2 mi SE 6.9 mph - 0.02 in Rain Light Rain
6:55 AM 44.6 °F 41.4 °F 44.6 °F 100% 29.98 in 0.2 mi ESE 5.8 mph - N/A Rain Light Rain
7:15 AM 44.6 °F 41.4 °F 44.6 °F 100% 29.99 in 0.2 mi ENE 5.8 mph - 0.04 in Rain Light Rain
7:56 AM 44.6 °F 42.2 °F 44.6 °F 100% 30.01 in 0.2 mi East 4.6 mph - 0.01 in Rain Light Rain
8:16 AM 44.6 °F 43.1 °F 44.6 °F 100% 30.01 in 0.2 mi SE 3.5 mph - 0.02 in Rain Light Rain
8:36 AM 44.6 °F 42.2 °F 44.6 °F 100% 30.01 in 0.2 mi SE 4.6 mph - 0.03 in Rain Light Rain
8:56 AM 44.6 °F - 44.6 °F 100% 30.02 in 0.2 mi Calm Calm - N/A Rain Light Rain
9:15 AM 44.6 °F 42.2 °F 44.6 °F 100% 30.02 in 0.2 mi SE 4.6 mph - 0.01 in Rain Light Rain
9:16 AM 44.6 °F 42.2 °F 44.6 °F 100% 30.02 in 0.2 mi SE 4.6 mph - 0.01 in Rain Light Rain
9:36 AM 44.6 °F 42.2 °F 44.6 °F 100% 30.02 in 1.0 mi SSE 4.6 mph - 0.02 in Rain Rain
9:55 AM 44.6 °F 43.1 °F 44.6 °F 100% 30.02 in 0.5 mi SSE 3.5 mph - N/A Rain Light Rain
9:56 AM 44.6 °F 42.2 °F 44.6 °F 100% 30.02 in 0.5 mi SSE 4.6 mph - N/A Rain Light Rain
10:36 AM 44.6 °F 42.2 °F 44.6 °F 100% 30.03 in 0.2 mi SSE 4.6 mph - 0.01 in Rain Rain
10:56 AM 44.6 °F 41.4 °F 44.6 °F 100% 30.03 in 0.2 mi SSE 5.8 mph - N/A Rain Light Rain
11:15 AM 44.6 °F 40.7 °F 44.6 °F 100% 30.03 in 0.2 mi SE 6.9 mph - 0.01 in Rain Light Rain
11:16 AM 44.6 °F 41.4 °F 44.6 °F 100% 30.03 in 0.2 mi SE 5.8 mph - 0.01 in Rain Light Rain
11:56 AM 44.6 °F 41.4 °F 44.6 °F 100% 30.03 in 0.2 mi ESE 5.8 mph - 0.01 in Rain Light Rain
12:16 PM 46.4 °F 45.2 °F 46.4 °F 100% 30.03 in 0.2 mi SSE 3.5 mph - 0.06 in Rain Light Rain
12:36 PM 46.4 °F 43.5 °F 46.4 °F 100% 30.02 in 0.2 mi SSE 5.8 mph - 0.07 in Rain Light Rain
12:56 PM 46.4 °F 42.4 °F 46.4 °F 100% 30.02 in 0.2 mi SE 8.1 mph - N/A Rain Light Rain
1:16 PM 44.6 °F 43.1 °F 44.6 °F 100% 30.02 in 0.2 mi South 3.5 mph - N/A Rain Rain
1:56 PM 46.4 °F - 46.4 °F 100% 30.01 in 10.0 mi Calm Calm - N/A   Overcast
2:16 PM 46.4 °F 45.2 °F 46.4 °F 100% 30.02 in 10.0 mi ESE 3.5 mph - N/A   Overcast
2:36 PM 46.4 °F 44.3 °F 46.4 °F 100% 30.01 in 10.0 mi SE 4.6 mph - N/A   Overcast
2:55 PM 46.4 °F 45.2 °F 46.4 °F 100% 30.01 in 10.0 mi SE 3.5 mph - N/A   Overcast
2:56 PM 46.4 °F 45.2 °F 46.4 °F 100% 30.01 in 10.0 mi ESE 3.5 mph - N/A   Overcast
3:35 PM 46.4 °F 45.2 °F 46.4 °F 100% 30.01 in 10.0 mi NNE 3.5 mph - N/A   Overcast
3:55 PM 46.4 °F - 46.4 °F 100% 30.01 in 10.0 mi Calm Calm - N/A   Light Drizzle
4:35 PM 48.2 °F - 48.2 °F 100% 30.01 in 10.0 mi Calm Calm - N/A   Overcast
4:55 PM 48.2 °F - 48.2 °F 100% 30.01 in 10.0 mi WNW 5.8 mph - N/A   Overcast
5:15 PM 48.2 °F - 48.2 °F 100% 30.01 in 10.0 mi NW 3.5 mph - N/A   Overcast
5:35 PM 50.0 °F - 48.2 °F 94% 30.01 in 10.0 mi West 5.8 mph - N/A   Mostly Cloudy
5:55 PM 51.8 °F - 46.4 °F 82% 30.01 in 10.0 mi West 5.8 mph - N/A   Overcast
6:15 PM 51.8 °F - 48.2 °F 88% 30.01 in 10.0 mi NW 6.9 mph - N/A   Mostly Cloudy
6:35 PM 51.8 °F - 46.4 °F 82% 30.02 in 10.0 mi West 6.9 mph - N/A   Mostly Cloudy
6:55 PM 50.0 °F - 46.4 °F 87% 30.02 in 10.0 mi West 8.1 mph - N/A   Mostly Cloudy
7:15 PM 51.8 °F - 46.4 °F 82% 30.02 in 10.0 mi West 6.9 mph - N/A   Mostly Cloudy
7:35 PM 51.8 °F - 46.4 °F 82% 30.03 in 10.0 mi West 8.1 mph - N/A   Overcast
7:55 PM 50.0 °F - 46.4 °F 87% 30.04 in 10.0 mi WNW 8.1 mph - N/A   Mostly Cloudy
8:15 PM 48.2 °F - 46.4 °F 93% 30.04 in 10.0 mi West 8.1 mph - N/A   Mostly Cloudy
8:35 PM 48.2 °F - 46.4 °F 93% 30.05 in 10.0 mi West 8.1 mph - N/A   Scattered Clouds
8:55 PM 48.2 °F - 46.4 °F 93% 30.05 in 10.0 mi West 9.2 mph - N/A   Mostly Cloudy
9:15 PM 48.2 °F - 46.4 °F 93% 30.05 in 10.0 mi West 5.8 mph - N/A   Scattered Clouds
9:35 PM 48.2 °F - 46.4 °F 93% 30.05 in 10.0 mi West 9.2 mph - N/A   Scattered Clouds
9:55 PM 48.2 °F - 46.4 °F 93% 30.06 in 10.0 mi West 9.2 mph - N/A   Clear
10:15 PM 48.2 °F - 46.4 °F 93% 30.07 in 10.0 mi West 10.4 mph - N/A   Clear
10:35 PM 48.2 °F - 46.4 °F 93% 30.07 in 10.0 mi West 10.4 mph - N/A   Clear
11:15 PM 48.2 °F - 46.4 °F 93% 30.07 in 10.0 mi WNW 11.5 mph - N/A   Clear
11:35 PM 48.2 °F - 46.4 °F 93% 30.07 in 10.0 mi West 10.4 mph - N/A   Clear
11:55 PM 48.2 °F - 46.4 °F 93% 30.07 in 10.0 mi West 11.5 mph - N/A   Clear